Location: Unspecified
(53.0374°N, 0.0000°E)
Time: 05:52:13
(UTC+00:00)

Tiros 1 despin weight - All Passes

Search period start: 04 April 2026 00:00
Search period end: 14 April 2026 00:00
Orbit: 555 x 593 km, 48.2° (Epoch: 29 March)

Date Brightness Start Highest point End Pass type
(mag) Time Alt. Az. Time Alt. Az. Time Alt. Az.
4 Apr - 00:24:49 10° WSW 00:29:02 45° S 00:33:14 10° ESE night (unlit)
4 Apr - 02:05:17 10° W 02:09:04 28° SSW 02:12:51 10° SE night (unlit)
4 Apr - 21:07:51 10° SSW 21:10:58 19° SSE 21:14:08 10° ESE visible
4 Apr - 22:46:45 10° WSW 22:50:50 40° SSE 22:54:59 10° E night (unlit)
5 Apr - 00:26:49 10° WSW 00:31:00 42° S 00:35:10 10° ESE night (unlit)
5 Apr - 02:07:26 10° W 02:10:57 23° SSW 02:14:26 10° SSE night (unlit)
5 Apr - 21:09:17 10° SSW 21:12:49 24° SSE 21:16:23 10° E visible
5 Apr - 22:48:38 10° WSW 22:52:48 43° S 22:56:59 10° ESE night (unlit)
6 Apr - 00:28:50 10° W 00:32:56 38° SSW 00:37:02 10° SE night (unlit)
6 Apr - 02:09:44 10° WSW 02:12:47 18° SSW 02:15:48 10° SSE night (unlit)
6 Apr - 19:34:03 10° SSE 19:35:06 11° SE 19:36:10 10° SE visible
6 Apr - 21:10:53 10° SW 21:14:41 30° SSE 21:18:31 10° E visible
6 Apr - 22:50:33 10° WSW 22:54:44 45° S 22:58:57 10° ESE visible
7 Apr - 00:30:53 10° W 00:34:51 34° SSW 00:38:50 10° SE night (unlit)
7 Apr - 02:12:17 10° WSW 02:14:33 14° SW 02:16:49 10° S night (unlit)
7 Apr - 19:34:24 10° S 19:36:50 15° SE 19:39:18 10° ESE visible
7 Apr - 21:12:36 10° SW 21:16:34 35° SSE 21:20:35 10° E visible
7 Apr - 22:52:30 10° WSW 22:56:41 44° S 23:00:53 10° ESE visible
8 Apr - 00:32:57 10° W 00:36:44 28° SSW 00:40:30 10° SE night (unlit)
8 Apr - 19:35:30 10° SSW 19:38:37 19° SSE 19:41:45 10° ESE visible
8 Apr - 21:14:24 10° WSW 21:18:28 39° SSE 21:22:35 10° E visible
8 Apr - 22:54:28 10° WSW 22:58:37 42° S 23:02:47 10° ESE visible
9 Apr - 00:35:05 10° W 00:38:34 23° SSW 00:42:02 10° SSE night (unlit)
9 Apr - 19:36:54 10° SSW 19:40:25 24° SSE 19:43:58 10° E visible
9 Apr - 21:16:15 10° WSW 21:20:23 43° S 21:24:33 10° ESE visible
9 Apr - 22:56:27 10° W 23:00:31 38° SSW 23:04:37 10° SE visible
10 Apr - 00:37:21 10° WSW 00:40:21 18° SSW 00:43:22 10° S night (unlit)
10 Apr - 18:01:40 10° SSE 18:02:41 11° SE 18:03:41 10° SE daylight
10 Apr - 19:38:28 10° SW 19:42:15 29° SSE 19:46:04 10° E visible
10 Apr - 21:18:08 10° WSW 21:22:18 45° S 21:26:29 10° ESE visible
10 Apr - 22:58:27 10° W 23:02:24 33° SSW 23:06:22 10° SE visible
11 Apr - 00:39:52 10° WSW 00:42:06 14° SW 00:44:20 10° S night (unlit)
11 Apr - 18:01:58 10° S 18:04:23 15° SE 18:06:49 10° ESE daylight
11 Apr - 19:40:09 10° SW 19:44:06 35° SSE 19:48:05 10° E visible
11 Apr - 21:20:03 10° WSW 21:24:12 44° S 21:28:23 10° ESE visible
11 Apr - 23:00:29 10° W 23:04:15 28° SSW 23:08:00 10° SE visible
12 Apr - 18:03:02 10° SSW 18:06:07 19° SSE 18:09:13 10° ESE daylight
12 Apr - 19:41:55 10° WSW 19:45:58 39° SSE 19:50:03 10° E visible
12 Apr - 21:21:59 10° WSW 21:26:06 42° S 21:30:15 10° ESE visible
12 Apr - 23:02:35 10° W 23:06:02 23° SSW 23:09:31 10° SSE visible
13 Apr - 18:04:24 10° SSW 18:07:53 24° SSE 18:11:24 10° E daylight
13 Apr - 19:43:44 10° WSW 19:47:50 43° S 19:52:00 10° ESE visible
13 Apr - 21:23:56 10° W 21:27:59 38° SSW 21:32:02 10° SE visible
13 Apr - 23:04:50 10° WSW 23:07:48 18° SSW 23:10:47 10° S visible
